[[{"header":{"parameterUnit":"m.s-1","parameterCategory":1,"la1":30.2991,"la2":30.254,"lo1":-89.0895,"lo2":-89.0444,"dy":0.0017,"dx":0.0017,"nx":28,"ny":28,"refTime":"2024-02-29T03:00:00:Z","depth":0,"parameterNumber":2,"parameterNumberName":"U-component_of_WINDS"},"data":[0,0,0,0,0,0,0,0,0,0,0,0,0,0,0,0,0,0,0,0,0,0,0,0,0,0,0,0,0,0,0,0,0,0,0,0,0,0,0,0,0,0,0,0,0,0,0,0,0,0,0,0,0,0,0,0,0,0,-5.5215,-5.5218,0,-5.5453,-5.5456,-5.5459,-5.5549,-5.5548,-5.5547,-5.5547,-5.5788,-5.5795,-5.5802,0,0,0,0,0,0,0,0,0,0,0,0,0,-5.4837,-5.4843,-5.5215,-5.5218,-5.5221,-5.5453,-5.5456,-5.5459,-5.5549,-5.5548,-5.5547,-5.5546,-5.5786,-5.5794,-5.5803,0,0,0,0,0,0,0,0,0,0,0,0,0,-5.503,-5.4845,-5.5214,-5.5294,-5.5303,-5.5452,-5.5456,-5.546,-5.5549,-5.5548,-5.5547,-5.5546,-5.5783,-5.5793,-5.5804,-5.5891,0,0,-5.5836,-5.5841,0,0,0,0,0,0,0,0,-5.5019,-5.5044,-5.5279,-5.5288,-5.5299,-5.547,-5.5412,-5.5605,-5.5549,-5.5456,-5.5547,-5.5545,-5.5683,-5.5702,-5.5749,-5.5903,-5.5913,-5.5837,-5.5844,-5.5848,-5.5851,0,0,0,0,0,0,0,-5.5006,-5.5035,-5.5309,-5.5282,-5.5295,-5.5317,-5.5343,-5.5449,-5.5572,-5.5464,-5.5471,-5.5498,-5.5688,-5.5738,-5.5755,-5.5917,-5.5837,-5.5847,-5.5853,-5.5857,-5.6155,-5.6157,0,0,0,0,0,0,-5.498,-5.5023,-5.5302,-5.5316,-5.5154,-5.5325,-5.5354,-5.5416,-5.5572,-5.5594,-5.5498,-5.5501,-5.5721,-5.5743,-5.5764,-5.5877,-5.5848,-5.5858,-5.5865,-5.6154,-5.6156,-5.6157,0,0,0,0,0,0,-5.4971,-5.5004,-5.5292,-5.5172,-5.521,-5.5332,-5.5402,-5.5422,-5.5472,-5.5598,-5.562,-5.5527,-5.5721,-5.5749,-5.5859,-5.5887,-5.5863,-5.5873,-5.6152,-5.6154,-5.6156,-5.6103,0,0,0,0,0,0,-5.496,-5.5,-5.5034,-5.5172,-5.5216,-5.5383,-5.5403,-5.5427,-5.549,-5.5496,-5.563,-5.5652,-5.5722,-5.5843,-5.587,-5.5901,-5.5881,-5.615,-5.6153,-5.6156,-5.6102,-5.6103,-5.6103,0,0,0,0,0,-5.4946,-5.5009,-5.5036,-5.5069,-5.5262,-5.5385,-5.541,-5.549,-5.5492,-5.5528,-5.5609,-5.5647,-5.588,-5.5854,-5.5885,-5.5919,-5.6149,-5.6152,-5.6155,-5.6102,-5.6103,-5.6103,0,0,0,0,0,0,-5.487,-5.5028,-5.506,-5.5169,-5.5263,-5.54,-5.5447,-5.5488,-5.5583,-5.5584,-5.568,-5.5709,-5.5812,-5.5877,-5.5845,-5.6013,-5.6017,-5.6027,-5.5966,-5.5967,-5.5967,-5.5949,-5.589,0,0,0,0,0,-5.4867,-5.4954,-5.5087,-5.5171,-5.5216,-5.5323,-5.538,-5.5434,-5.5535,-5.5574,-5.5664,-5.576,-5.5855,-5.5915,-5.6009,-5.6113,-5.6144,-5.6152,-5.6153,-5.6152,-5.6159,-5.622,-5.6225,-5.6168,-5.6168,-5.6168,0,0,-5.4859,-5.4956,-5.5005,-5.5158,-5.5237,-5.5325,-5.5356,-5.5447,-5.5513,-5.5588,-5.5698,-5.5767,-5.5881,-5.5988,-5.604,-5.6046,-5.6182,-5.6157,-5.6155,-5.6163,-5.6224,-5.6229,-5.6233,-5.6171,-5.617,-5.617,0,0,-5.489,-5.4973,-5.5052,-5.5131,-5.5251,-5.5322,-5.5341,-5.5472,-5.5521,-5.5634,-5.5692,-5.5772,-5.5933,-5.6012,-5.6073,-5.6136,-5.6175,-5.6164,-5.6165,-5.6223,-5.6227,-5.6232,-5.6254,-5.6261,-5.6171,-5.6171,-5.6171,0,-5.4866,-5.5001,-5.5087,-5.5176,-5.5241,-5.5315,-5.5396,-5.5468,-5.5612,-5.5655,-5.566,-5.5865,-5.5946,-5.6074,-5.6089,-5.6137,-5.6161,-5.6148,-5.622,-5.6225,-5.623,-5.6253,-5.6261,-5.6169,-5.6169,-5.6169,-5.6169,0,-5.4964,-5.5057,-5.5107,-5.5245,-5.5316,-5.54,-5.5499,-5.5561,-5.561,-5.568,-5.5794,-5.5895,-5.6011,-5.6046,-5.6094,-5.6181,-5.618,-5.6201,-5.6207,-5.6232,-5.6255,-5.6264,-5.6166,-5.6166,-5.6167,-5.6168,0,0,-5.4952,-5.5139,-5.5155,-5.522,-5.5358,-5.5431,-5.5519,-5.5634,-5.5685,-5.5783,-5.5859,-5.5995,-5.6015,-5.6084,-5.6142,-5.6193,-5.6237,-5.6208,-5.6212,-5.6209,-5.6339,-5.6321,-5.633,-5.6264,-5.6266,-5.6268,-5.6329,0,-5.5001,-5.5162,-5.5243,-5.5368,-5.5455,-5.5528,-5.5605,-5.5698,-5.5767,-5.585,-5.5927,-5.6021,-5.6042,-5.6084,-5.6138,-5.622,-5.6264,-5.6217,-5.6335,-5.6338,-5.6303,-5.6342,-5.6324,-5.6376,-5.6339,-5.634,-5.6341,0,-5.5079,-5.5177,-5.5311,-5.5441,-5.548,-5.5548,-5.566,-5.5739,-5.5847,-5.5894,-5.5972,-5.6029,-5.6124,-5.6125,-5.6258,-5.6224,-5.6278,-5.6326,-5.633,-5.6343,-5.634,-5.6355,-5.6395,-5.6402,-5.6356,-5.6355,-5.6354,0,-5.5056,-5.5221,-5.5323,-5.5376,-5.553,-5.5576,-5.5642,-5.5749,-5.5813,-5.5911,-5.5954,-5.6062,-5.612,-5.6203,-5.6287,-5.628,-5.6412,-5.6419,-5.6453,-5.6451,-5.6476,-5.6473,-5.6524,-5.6512,-5.6512,-5.6512,-5.6512,0,-5.5102,-5.518,-5.5315,-5.5377,-5.5469,-5.5562,-5.5649,-5.5721,-5.5816,-5.5894,-5.5963,-5.6034,-5.6143,-5.6228,-5.6295,-5.6395,-5.6421,-5.6461,-5.6478,-5.6454,-5.6449,-5.649,-5.6488,-5.6514,-5.6514,-5.6513,-5.6513,0,-5.509,-5.5184,-5.53,-5.5436,-5.5473,-5.5534,-5.5651,-5.5714,-5.5788,-5.5885,-5.5914,-5.6028,-5.6132,-5.6226,-5.6363,-5.6409,-5.651,-5.6532,-5.6474,-5.6482,-5.651,-5.6506,-5.6588,-5.6604,-5.6582,-5.6582,-5.6582,0,-5.5112,-5.5175,-5.5319,-5.5376,-5.5442,-5.5533,-5.5599,-5.5694,-5.576,-5.5889,-5.5936,-5.6046,-5.6138,-5.6301,-5.6396,-5.6503,-5.6526,-5.6548,-5.6543,-5.6517,-5.6526,-5.6521,-5.6527,-5.6547,-5.6546,-5.6546,-5.6546,0,-5.5142,-5.5185,-5.5278,-5.5388,-5.5465,-5.5556,-5.5648,-5.5691,-5.5804,-5.5875,-5.5982,-5.6054,-5.6195,-5.6303,-5.642,-5.6488,-5.6536,-5.6547,-5.6561,-5.6537,-5.65,-5.652,-5.6471,-5.6545,-5.6545,-5.6545,-5.6545,-5.6545,-5.5148,-5.5207,-5.5318,-5.5419,-5.5499,-5.5585,-5.5651,-5.5734,-5.5825,-5.5948,-5.5999,-5.6108,-5.6215,-5.6378,-5.6446,-5.6533,-5.6542,-5.6561,-5.6566,-5.6569,-5.6564,-5.6487,-5.6555,-5.6555,-5.6555,-5.6555,-5.6556,0,-5.518,-5.5255,-5.5348,-5.5476,-5.5556,-5.5595,-5.57,-5.5764,-5.586,-5.5956,-5.6046,-5.617,-5.6275,-5.638,-5.6491,-5.6541,-5.6565,-5.6566,-5.6563,-5.6578,-5.655,-5.6527,-5.6545,-5.6545,-5.6545,-5.6545,-5.6545,-5.6545,-5.5206,-5.5309,-5.5365,-5.5508,-5.5584,-5.5691,-5.5748,-5.5827,-5.5905,-5.604,-5.6128,-5.6196,-5.6297,-5.6416,-5.6514,-5.6543,-5.658,-5.6574,-5.6608,-5.658,-5.658,-5.658,-5.6559,-5.6582,-5.6582,-5.6629,-5.6629,-5.663]},{"header":{"parameterUnit":"m.s-1","parameterCategory":1,"la1":30.2991,"la2":30.254,"lo1":-89.0895,"lo2":-89.0444,"dy":0.0017,"dx":0.0017,"nx":28,"ny":28,"refTime":"2024-02-29T03:00:00:Z","depth":0,"parameterNumber":3,"parameterNumberName":"V-component_of_WINDS"},"data":[0,0,0,0,0,0,0,0,0,0,0,0,0,0,0,0,0,0,0,0,0,0,0,0,0,0,0,0,0,0,0,0,0,0,0,0,0,0,0,0,0,0,0,0,0,0,0,0,0,0,0,0,0,0,0,0,0,0,6.1655,6.1656,0,6.1753,6.1754,6.1755,6.1759,6.1757,6.1756,6.1755,6.185,6.1853,6.1857,0,0,0,0,0,0,0,0,0,0,0,0,0,6.1465,6.1469,6.1655,6.1656,6.1657,6.1753,6.1754,6.1756,6.1759,6.1757,6.1756,6.1755,6.1849,6.1853,6.1857,0,0,0,0,0,0,0,0,0,0,0,0,0,6.1554,6.147,6.1654,6.167,6.1673,6.1753,6.1754,6.1756,6.1759,6.1757,6.1756,6.1754,6.1847,6.1853,6.1858,6.1927,0,0,6.1875,6.1877,0,0,0,0,0,0,0,0,6.1549,6.1561,6.1667,6.1669,6.1672,6.1742,6.1722,6.1813,6.176,6.1726,6.1755,6.1753,6.1815,6.1823,6.1845,6.1931,6.1935,6.1875,6.1878,6.1881,6.1882,0,0,0,0,0,0,0,6.1543,6.1557,6.1693,6.1668,6.1672,6.1671,6.1682,6.174,6.1779,6.1729,6.1729,6.1741,6.1816,6.184,6.1847,6.1937,6.1875,6.188,6.1883,6.1885,6.2086,6.2088,0,0,0,0,0,0,6.1534,6.1551,6.169,6.1696,6.1605,6.1676,6.1688,6.1721,6.1778,6.1786,6.1743,6.1741,6.1831,6.1841,6.1851,6.1936,6.1881,6.1886,6.1889,6.2084,6.2087,6.2089,0,0,0,0,0,0,6.153,6.1547,6.1686,6.1624,6.1642,6.1681,6.1718,6.1724,6.1748,6.1789,6.1796,6.176,6.183,6.1843,6.1909,6.194,6.1888,6.1893,6.2082,6.2085,6.2088,6.2107,0,0,0,0,0,0,6.1525,6.1545,6.1572,6.1625,6.1645,6.1744,6.172,6.1727,6.1758,6.1757,6.1807,6.1814,6.183,6.1901,6.1914,6.1946,6.1897,6.2079,6.2083,6.2087,6.2104,6.2111,6.2117,0,0,0,0,0,6.1518,6.1572,6.1574,6.159,6.168,6.1746,6.1757,6.1777,6.176,6.1788,6.1815,6.1812,6.1934,6.1907,6.1923,6.1957,6.2077,6.2082,6.2087,6.2101,6.211,6.2116,0,0,0,0,0,0,6.1519,6.1579,6.1581,6.1655,6.1695,6.1746,6.1781,6.1784,6.1829,6.1826,6.1846,6.1858,6.1923,6.1946,6.1915,6.2027,6.2004,6.2012,6.201,6.2018,6.2024,6.2017,6.1902,0,0,0,0,0,6.1528,6.1578,6.1627,6.1686,6.1707,6.1741,6.177,6.1782,6.1824,6.184,6.1872,6.1912,6.1959,6.199,6.2036,6.2108,6.2119,6.2139,6.2145,6.215,6.2156,6.2198,6.2208,6.2104,6.2104,6.2104,0,0,6.1547,6.1586,6.1615,6.1688,6.1721,6.1771,6.1755,6.1808,6.1845,6.1848,6.1913,6.1937,6.1983,6.2053,6.2085,6.2074,6.2188,6.2156,6.216,6.2164,6.2204,6.2214,6.2222,6.2107,6.2107,6.2106,0,0,6.1606,6.1641,6.1696,6.173,6.1781,6.1804,6.1817,6.1868,6.1886,6.1952,6.1956,6.1999,6.208,6.2114,6.2141,6.2217,6.2216,6.2231,6.2263,6.2303,6.2311,6.2318,6.2346,6.2356,6.2237,6.2237,6.2237,0,6.1622,6.1699,6.1722,6.1777,6.1809,6.1817,6.1872,6.1904,6.1966,6.1988,6.1976,6.208,6.2111,6.2189,6.2208,6.223,6.2245,6.2225,6.2308,6.2316,6.2323,6.235,6.236,6.2239,6.2239,6.2238,6.2238,0,6.1717,6.1771,6.1808,6.1872,6.1908,6.1962,6.1993,6.2027,6.2037,6.206,6.2128,6.2166,6.2221,6.2241,6.2249,6.2321,6.2313,6.2304,6.2281,6.2334,6.236,6.237,6.2241,6.224,6.224,6.2239,0,0,6.1778,6.1857,6.187,6.19,6.1959,6.2,6.2055,6.2111,6.214,6.2183,6.223,6.23,6.2294,6.2325,6.2337,6.2373,6.2432,6.236,6.2361,6.2372,6.2514,6.2521,6.2532,6.2432,6.2434,6.2436,6.2511,0,6.1845,6.1945,6.1968,6.2054,6.2104,6.2114,6.2162,6.2202,6.2227,6.2272,6.2297,6.2347,6.2334,6.2354,6.2389,6.2417,6.246,6.2412,6.2475,6.2477,6.2463,6.2545,6.2552,6.262,6.2521,6.2523,6.2524,0,6.1935,6.1984,6.2075,6.213,6.2152,6.2195,6.225,6.2293,6.2339,6.2354,6.2391,6.2401,6.2458,6.2433,6.2511,6.2478,6.2505,6.2523,6.2526,6.2532,6.2503,6.2554,6.2643,6.2653,6.2539,6.2538,6.2537,0,6.1972,6.206,6.2127,6.2152,6.2217,6.2247,6.2275,6.2321,6.2354,6.2401,6.2423,6.2475,6.2503,6.2543,6.2567,6.2546,6.2644,6.2621,6.2658,6.2658,6.2678,6.2676,6.2772,6.2695,6.2695,6.2695,6.2695,0,6.2044,6.2099,6.2145,6.2186,6.2248,6.2275,6.2336,6.2364,6.2404,6.245,6.2461,6.2504,6.2532,6.2579,6.2597,6.2661,6.2673,6.2686,6.2691,6.2686,6.2684,6.2703,6.2699,6.2698,6.2697,6.2696,6.2696,0,6.2094,6.2127,6.2201,6.2258,6.2273,6.2317,6.2365,6.2405,6.2431,6.2489,6.2504,6.2543,6.2599,6.2627,6.2694,6.2707,6.2779,6.278,6.2764,6.2765,6.2802,6.2798,6.2914,6.293,6.2842,6.2843,6.2843,0,6.2138,6.2182,6.2245,6.2278,6.2307,6.2359,6.2394,6.2422,6.2458,6.2516,6.2549,6.2606,6.2653,6.2741,6.2774,6.2827,6.283,6.2867,6.2837,6.2832,6.2831,6.2828,6.2833,6.2871,6.2872,6.2873,6.2873,0,6.2213,6.2228,6.2279,6.2336,6.2378,6.2424,6.2469,6.2495,6.253,6.257,6.2628,6.2665,6.2737,6.2793,6.2849,6.2876,6.2881,6.2883,6.2894,6.2889,6.2879,6.2886,6.2778,6.288,6.2879,6.2879,6.2878,6.2878,6.2262,6.2302,6.2353,6.241,6.2448,6.249,6.2532,6.2564,6.2614,6.2676,6.2689,6.2751,6.2798,6.2874,6.2903,6.2952,6.2944,6.296,6.2964,6.2968,6.297,6.2872,6.2962,6.2962,6.2961,6.2961,6.2961,0,6.2338,6.2372,6.2424,6.2489,6.2534,6.2537,6.2588,6.2625,6.268,6.2725,6.2772,6.284,6.2895,6.2934,6.299,6.3022,6.3025,6.3035,6.3033,6.304,6.2974,6.2959,6.3032,6.3032,6.3032,6.3031,6.3031,6.3031,6.2383,6.2451,6.2473,6.256,6.2593,6.2656,6.2685,6.2725,6.2761,6.2837,6.2884,6.291,6.2953,6.3013,6.3063,6.3073,6.3094,6.3104,6.3114,6.3051,6.3044,6.3037,6.3023,6.3108,6.3108,6.3176,6.3176,6.3177]}]]